Weather History for KANJ - May, 2012

Change the Weather History Date:

Sunday, May 27, 2012

  Actual Average Record
Temperature  
Mean Temperature 63 °F 55 °F  
Max Temperature 68 °F 66 °F 90 °F (1911)
Min Temperature 57 °F 44 °F 27 °F (1983)
Degree Days  
Heating Degree Days 2 10  
Month to date heating degree days 257 374  
Since 1 July heating degree days 6967 8443  
Cooling Degree Days 0 0  
Month to date cooling degree days 9 0  
Year to date cooling degree days 11 0  
Growing Degree Days 12 (Base 50)    
Moisture  
Dew Point 48 °F    
Average Humidity 63    
Maximum Humidity 78    
Minimum Humidity 48    
Precipitation  
Precipitation T in 0.09 in 1.11 in (1912)
Month to date precipitation 0.37 2.21  
Year to date precipitation 8.08 10.08  
Sea Level Pressure  
Sea Level Pressure 30.02 in    
Wind  
Wind Speed 7 mph (ESE)    
Max Wind Speed 17 mph    
Max Gust Speed 26 mph    
Visibility 10 miles    
Events Rain    
T = Trace of Precipitation, MM = Missing Value Source: NWS Daily Summary

Daily Weather History Graph

Daily Weather History Graph

Search for Another Location

Airport or City:

Trip Planner

Search our weather history database for the weather conditions in past years. The results will help you decide how hot, cold, wet, or windy it might be!

Date:

Astronomy

May. 27, 2012 Rise Set
Actual Time 5:51 AM EDT 9:18 PM EDT
Civil Twilight 5:14 AM EDT 9:55 PM EDT
Nautical Twilight 4:24 AM EDT 10:45 PM EDT
Astronomical Twilight 3:21 AM EDT 11:50 PM EDT
Moon 12:08 PM EDT (5/27) 1:13 AM EDT (5/27)
Length of Visible Light 16h 41m
Length of Day
15h 27m
Waxing Crescent, 38% of the Moon is Illuminated
May 27
Waxing Crescent
May 28
First Quarter
Jun 4
Full
Jun 11
Last Quarter
Jun 19
New

Hourly Weather History & Observations

Time (EDT) Temp. Dew Point Humidity Pressure Visibility Wind Dir Wind Speed Gust Speed Precip Events Conditions
12:55 AM 61.0 °F 43.0 °F 52% 30.16 in 10.0 mi Calm Calm - N/A   Overcast
1:55 AM 61.0 °F 42.1 °F 50% 30.16 in 10.0 mi Calm Calm - N/A   Overcast
2:55 AM 60.1 °F 45.0 °F 57% 30.14 in 10.0 mi Calm Calm - N/A   Overcast
3:55 AM 60.1 °F 46.0 °F 60% 30.14 in 10.0 mi Calm Calm - N/A   Overcast
4:55 AM 59.0 °F 46.0 °F 62% 30.12 in 10.0 mi East 5.8 mph - N/A   Overcast
5:55 AM 60.1 °F 44.1 °F 55% 30.10 in 10.0 mi East 4.6 mph - N/A   Overcast
6:55 AM 60.1 °F 45.0 °F 57% 30.11 in 10.0 mi East 5.8 mph - N/A   Overcast
7:55 AM 60.1 °F 46.0 °F 60% 30.13 in 10.0 mi ESE 4.6 mph - N/A   Overcast
8:55 AM 59.0 °F 45.0 °F 60% 30.14 in 10.0 mi ESE 5.8 mph - 0.00 in Rain Light Rain
9:55 AM 57.9 °F 48.0 °F 70% 30.11 in 10.0 mi East 6.9 mph - 0.00 in Rain Light Rain
10:55 AM 60.1 °F 46.9 °F 62% 29.99 in 10.0 mi ESE 15.0 mph 24.2 mph 0.00 in Rain Light Rain
11:55 AM 62.1 °F 46.0 °F 56% 30.08 in 10.0 mi SE 9.2 mph 17.3 mph 0.00 in   Scattered Clouds
12:55 PM 62.1 °F 48.9 °F 62% 30.05 in 10.0 mi ESE 8.1 mph - 0.00 in   Clear
1:55 PM 62.1 °F 48.9 °F 62% 29.99 in 10.0 mi ESE 9.2 mph 17.3 mph N/A   Clear
2:55 PM 64.0 °F 50.0 °F 60% 30.00 in 10.0 mi SE 13.8 mph 20.7 mph N/A   Clear
3:55 PM 64.9 °F 46.9 °F 52% 29.97 in 10.0 mi East 10.4 mph 17.3 mph N/A   Clear
4:55 PM 66.0 °F 46.9 °F 50% 29.95 in 10.0 mi ESE 9.2 mph - N/A   Clear
5:55 PM 68.0 °F 50.0 °F 52% 29.93 in 10.0 mi SE 10.4 mph - N/A   Clear
6:55 PM 66.0 °F 50.0 °F 56% 29.91 in 10.0 mi East 9.2 mph - N/A   Scattered Clouds
7:55 PM 64.0 °F 50.0 °F 60% 29.91 in 10.0 mi ESE 8.1 mph - N/A   Overcast
8:55 PM 63.0 °F 50.0 °F 63% 29.90 in 10.0 mi SE 9.2 mph - N/A   Overcast
9:55 PM 61.0 °F 52.0 °F 72% 29.88 in 10.0 mi ESE 5.8 mph - N/A   Mostly Cloudy
10:55 PM 62.1 °F 52.0 °F 70% 29.88 in 10.0 mi ESE 5.8 mph - N/A   Overcast
11:55 PM 60.1 °F 53.1 °F 78% 29.88 in 10.0 mi East 4.6 mph - N/A   Clear